Location: American Medical Response
(33.3472°N, 96.5511°W)
Time: 19:47:49
(UTC+00:00)

Lacrosse 5 rocket - Pass Details

Date: 01 July 2022
Orbit: 456 x 628 km, 57.0° (Epoch: 08 August)

Event Time Altitude Azimuth Distance (km) Brightness Sun altitude
Rises 03:16:25 0° 334° (NNW) 2,599 6.1 -17.1°
Reaches altitude 10° 03:18:54 10° 350° (N) 1,744 4.7 -17.5°
Maximum altitude 03:22:04 23° 44° (NE) 1,168 3.0 -18.0°
Enters shadow 03:23:26 19° 73° (ENE) 1,311 3.0 -18.2°
